E24CR-1 Weather Reports


time (UTC)temp
F
wind
direction
speed
knots
gust
knots
rain 1hr
in
rain 24hr
in
rain mn
in
humidity
%
barometer
mb
20260505013843 86 0 0.0 0.0 0.00 0.00 0.00 67 955.0
20260505012818 84 0 0.0 0.0 0.00 0.00 0.00 72 955.0
20260505011754 83 0 0.0 0.0 0.00 0.00 0.00 74 955.0
20260505010730 81 0 0.0 0.0 0.00 0.00 0.00 75 955.0
20260505005706 80 0 0.0 0.0 0.00 0.00 0.00 79 955.0
20260505004641 80 0 0.0 0.0 0.00 0.00 0.00 80 954.0
20260505003617 80 0 0.0 0.0 0.00 0.00 0.00 81 954.0
20260505002553 79 0 0.0 0.0 0.00 0.00 0.00 83 954.0
20260505001528 79 0 0.0 0.0 0.00 0.00 0.00 84 954.0
20260505000449 78 0 0.0 0.0 0.00 0.00 0.00 82 954.0
20260504235424 78 0 0.0 0.0 0.00 0.00 0.00 82 954.0
20260504234400 78 0 0.0 0.0 0.00 0.00 0.00 79 954.0
20260504233336 78 0 0.0 0.0 0.00 0.00 0.00 79 954.0
20260504232312 77 0 0.0 0.0 0.00 0.00 0.00 81 954.0
20260504231248 77 0 0.0 0.0 0.00 0.00 0.00 82 953.0
20260504230224 76 0 0.0 0.0 0.00 0.00 0.00 84 953.0
20260504225202 76 0 0.0 0.0 0.00 0.00 0.00 86 953.0
20260504224136 76 0 0.0 0.0 0.00 0.00 0.00 84 953.0
20260504223111 76 0 0.0 0.0 0.00 0.00 0.00 82 953.0
20260504222037 77 0 0.0 0.0 0.00 0.00 0.00 79 952.0
20260504221013 77 0 0.0 0.0 0.00 0.00 0.00 78 953.0
20260504215949 77 0 0.0 0.0 0.00 0.00 0.00 78 953.0
20260504214925 78 0 0.0 0.0 0.00 0.00 0.00 75 952.0
20260504213900 78 0 0.0 0.0 0.00 0.00 0.00 78 952.0
20260504212836 78 0 0.0 0.0 0.00 0.00 0.00 79 952.0
20260504211812 76 0 0.0 0.0 0.00 0.00 0.00 81 952.0
20260504210748 76 0 0.0 0.0 0.00 0.00 0.00 84 953.0
20260504205724 76 0 0.0 0.0 0.00 0.00 0.00 79 953.0
20260504204659 78 0 0.0 0.0 0.00 0.00 0.00 74 952.0
20260504203635 77 0 0.0 0.0 0.00 0.00 0.00 79 953.0
20260504202611 77 0 0.0 0.0 0.00 0.00 0.00 78 953.0
20260504201547 77 0 0.0 0.0 0.00 0.00 0.00 79 953.0
20260504200523 76 0 0.0 0.0 0.00 0.00 0.00 77 953.0
20260504195459 76 0 0.0 0.0 0.00 0.00 0.00 77 953.0
20260504194435 76 0 0.0 0.0 0.00 0.00 0.00 79 953.0
20260504193411 77 0 0.0 0.0 0.00 0.00 0.00 79 953.0
20260504192346 77 0 0.0 0.0 0.00 0.00 0.00 79 953.0
20260504191322 76 0 0.0 0.0 0.00 0.00 0.00 82 953.0
20260504190258 77 0 0.0 0.0 0.00 0.00 0.00 82 953.0
20260504185235 76 0 0.0 0.0 0.00 0.00 0.00 87 954.0
20260504184210 76 0 0.0 0.0 0.00 0.00 0.00 89 954.0
20260504183146 77 0 0.0 0.0 0.00 0.00 0.00 85 953.0
20260504182122 77 0 0.0 0.0 0.00 0.00 0.00 85 954.0
20260504181058 77 0 0.0 0.0 0.00 0.00 0.00 80 954.0
20260504180033 77 0 0.0 0.0 0.00 0.00 0.00 76 954.0
20260504175009 79 0 0.0 0.0 0.00 0.00 0.00 71 954.0
20260504173945 80 0 0.0 0.0 0.00 0.00 0.00 69 954.0
20260504172921 81 0 0.0 0.0 0.00 0.00 0.00 64 954.0
20260504171857 82 0 0.0 0.0 0.00 0.00 0.00 62 954.0
20260504170833 82 0 0.0 0.0 0.00 0.00 0.00 60 954.0
20260504150341 87 0 0.0 0.0 0.00 0.00 0.00 46 952.0
20260504141139 89 0 0.0 0.0 0.00 0.00 0.00 43 951.0
20260504140116 89 0 0.0 0.0 0.00 0.00 0.00 43 951.0
20260504110422 96 0 0.0 0.0 0.00 0.00 0.00 32 948.0
20260504100157 100 0 0.0 0.0 0.00 0.00 0.00 27 948.0
20260504081755 105 0 0.0 0.0 0.00 0.00 0.00 25 949.0
20260504080731 102 0 0.0 0.0 0.00 0.00 0.00 26 949.0
20260504060240 102 0 0.0 0.0 0.00 0.00 0.00 27 951.0
20260504050015 102 0 0.0 0.0 0.00 0.00 0.00 29 952.0
20260504044951 99 0 0.0 0.0 0.00 0.00 0.00 31 953.0
20260504043926 99 0 0.0 0.0 0.00 0.00 0.00 32 953.0
20260504042902 101 0 0.0 0.0 0.00 0.00 0.00 32 953.0
20260504041838 99 0 0.0 0.0 0.00 0.00 0.00 33 953.0
20260504040814 98 0 0.0 0.0 0.00 0.00 0.00 34 953.0
20260504035749 97 0 0.0 0.0 0.00 0.00 0.00 35 953.0
20260504034724 99 0 0.0 0.0 0.00 0.00 0.00 33 953.0
20260504033700 97 0 0.0 0.0 0.00 0.00 0.00 35 953.0
20260504032636 98 0 0.0 0.0 0.00 0.00 0.00 35 953.0
20260504031612 94 0 0.0 0.0 0.00 0.00 0.00 40 953.0
20260504030548 93 0 0.0 0.0 0.00 0.00 0.00 41 953.0
20260504025523 93 0 0.0 0.0 0.00 0.00 0.00 38 953.0
20260504024459 92 0 0.0 0.0 0.00 0.00 0.00 42 953.0
20260504023435 92 0 0.0 0.0 0.00 0.00 0.00 42 954.0
20260504022411 93 0 0.0 0.0 0.00 0.00 0.00 39 954.0
20260504021347 92 0 0.0 0.0 0.00 0.00 0.00 42 954.0
20260504020323 93 0 0.0 0.0 0.00 0.00 0.00 43 953.0
20260504015259 92 0 0.0 0.0 0.00 0.00 0.00 44 953.0